Year,Month,Day,Hour,Minute,Value (Times are PST for temperature in C)
2020,09,29,00,00,12.10
2020,09,29,00,01,12.10
2020,09,29,00,02,12.10
2020,09,29,00,03,12.10
2020,09,29,00,04,12.10
2020,09,29,00,05,12.10
2020,09,29,00,06,12.10
2020,09,29,00,07,12.10
2020,09,29,00,08,12.20
2020,09,29,00,09,12.20
2020,09,29,00,10,12.20
2020,09,29,00,11,12.20
2020,09,29,00,12,12.10
2020,09,29,00,13,12.10
2020,09,29,00,14,12.20
2020,09,29,00,15,12.20
2020,09,29,00,16,12.20
2020,09,29,00,17,12.30
2020,09,29,00,18,12.30
2020,09,29,00,19,12.30
2020,09,29,00,20,12.30
2020,09,29,00,21,12.30
2020,09,29,00,22,12.30
2020,09,29,00,23,12.20
2020,09,29,00,24,12.20
2020,09,29,00,25,12.20
2020,09,29,00,26,12.20
2020,09,29,00,27,12.20
2020,09,29,00,28,12.20
2020,09,29,00,29,12.20
2020,09,29,00,30,12.20
2020,09,29,00,31,12.20
2020,09,29,00,32,12.20
2020,09,29,00,33,12.10
2020,09,29,00,34,12.10
2020,09,29,00,35,12.10
2020,09,29,00,36,12.10
2020,09,29,00,37,12.10
2020,09,29,00,38,12.00
2020,09,29,00,39,12.00
2020,09,29,00,40,12.00
2020,09,29,00,41,12.00
2020,09,29,00,42,11.90
2020,09,29,00,43,11.90
2020,09,29,00,44,11.90
2020,09,29,00,45,11.90
2020,09,29,00,46,11.90
2020,09,29,00,47,11.90
2020,09,29,00,48,11.90
2020,09,29,00,49,11.90
2020,09,29,00,50,11.90
2020,09,29,00,51,11.90
2020,09,29,00,52,11.90
2020,09,29,00,53,12.00
2020,09,29,00,54,12.00
2020,09,29,00,55,12.00
2020,09,29,00,56,12.00
2020,09,29,00,57,12.00
2020,09,29,00,58,11.90
2020,09,29,00,59,11.90
2020,09,29,01,00,11.90
2020,09,29,01,01,11.90
2020,09,29,01,02,11.90
2020,09,29,01,03,11.90
2020,09,29,01,04,11.90
2020,09,29,01,05,11.90
2020,09,29,01,06,11.90
2020,09,29,01,07,11.90
2020,09,29,01,08,11.90
2020,09,29,01,09,11.90
2020,09,29,01,10,11.80
2020,09,29,01,11,11.80
2020,09,29,01,12,11.80
2020,09,29,01,13,11.80
2020,09,29,01,14,11.70
2020,09,29,01,15,11.70
2020,09,29,01,16,11.70
2020,09,29,01,17,11.70
2020,09,29,01,18,11.70
2020,09,29,01,19,11.70
2020,09,29,01,20,11.70
2020,09,29,01,21,11.70
2020,09,29,01,22,11.70
2020,09,29,01,23,11.70
2020,09,29,01,24,11.70
2020,09,29,01,25,11.70
2020,09,29,01,26,11.70
2020,09,29,01,27,11.80
2020,09,29,01,28,11.70
2020,09,29,01,29,11.70
2020,09,29,01,30,11.70
2020,09,29,01,31,11.70
2020,09,29,01,32,11.70
2020,09,29,01,33,11.70
2020,09,29,01,34,11.80
2020,09,29,01,35,11.80
2020,09,29,01,36,11.80
2020,09,29,01,37,11.80
2020,09,29,01,38,11.80
2020,09,29,01,39,11.80
2020,09,29,01,40,11.70
2020,09,29,01,41,11.70
2020,09,29,01,42,11.70
2020,09,29,01,43,11.70
2020,09,29,01,44,11.70
2020,09,29,01,45,11.70
2020,09,29,01,46,11.60
2020,09,29,01,47,11.60
2020,09,29,01,48,11.60
2020,09,29,01,49,11.60
2020,09,29,01,50,11.60
2020,09,29,01,51,11.50
2020,09,29,01,52,11.50
2020,09,29,01,53,11.50
2020,09,29,01,54,11.50
2020,09,29,01,55,11.40
2020,09,29,01,56,11.40
2020,09,29,01,57,11.40
2020,09,29,01,58,11.40
2020,09,29,01,59,11.40
2020,09,29,02,00,11.40
2020,09,29,02,01,11.40
2020,09,29,02,02,11.40
2020,09,29,02,03,11.40
2020,09,29,02,04,11.40
2020,09,29,02,05,11.40
2020,09,29,02,06,11.40
2020,09,29,02,07,11.40
2020,09,29,02,08,11.30
2020,09,29,02,09,11.40
2020,09,29,02,10,11.30
2020,09,29,02,11,11.30
2020,09,29,02,12,11.30
2020,09,29,02,13,11.30
2020,09,29,02,14,11.30
2020,09,29,02,15,11.30
2020,09,29,02,16,11.40
2020,09,29,02,17,11.40
2020,09,29,02,18,11.40
2020,09,29,02,19,11.50
2020,09,29,02,20,11.50
2020,09,29,02,21,11.50
2020,09,29,02,22,11.50
2020,09,29,02,23,11.50
2020,09,29,02,24,11.50
2020,09,29,02,25,11.40
2020,09,29,02,26,11.40
2020,09,29,02,27,11.40
2020,09,29,02,28,11.40
2020,09,29,02,29,11.40
2020,09,29,02,30,11.40
2020,09,29,02,31,11.40
2020,09,29,02,32,11.40
2020,09,29,02,33,11.30
2020,09,29,02,34,11.30
2020,09,29,02,35,11.30
2020,09,29,02,36,11.30
2020,09,29,02,37,11.30
2020,09,29,02,38,11.30
2020,09,29,02,39,11.30
2020,09,29,02,40,11.30
2020,09,29,02,41,11.30
2020,09,29,02,42,11.30
2020,09,29,02,43,11.30
2020,09,29,02,44,11.30
2020,09,29,02,45,11.30
2020,09,29,02,46,11.30
2020,09,29,02,47,11.30
2020,09,29,02,48,11.30
2020,09,29,02,49,11.30
2020,09,29,02,50,11.30
2020,09,29,02,51,11.20
2020,09,29,02,52,11.20
2020,09,29,02,53,11.20
2020,09,29,02,54,11.20
2020,09,29,02,55,11.20
2020,09,29,02,56,11.20
2020,09,29,02,57,11.10
2020,09,29,02,58,11.10
2020,09,29,02,59,11.10
2020,09,29,03,00,11.10
2020,09,29,03,01,11.10
2020,09,29,03,02,11.10
2020,09,29,03,03,11.10
2020,09,29,03,04,11.10
2020,09,29,03,05,11.10
2020,09,29,03,06,11.00
2020,09,29,03,07,11.00
2020,09,29,03,08,11.00
2020,09,29,03,09,11.00
2020,09,29,03,10,11.00
2020,09,29,03,11,11.00
2020,09,29,03,12,10.90
2020,09,29,03,13,11.00
2020,09,29,03,14,11.00
2020,09,29,03,15,11.00
2020,09,29,03,16,11.00
2020,09,29,03,17,11.00
2020,09,29,03,18,11.00
2020,09,29,03,19,11.00
2020,09,29,03,20,11.00
2020,09,29,03,21,11.00
2020,09,29,03,22,11.00
2020,09,29,03,23,11.00
2020,09,29,03,24,11.00
2020,09,29,03,25,10.90
2020,09,29,03,26,10.90
2020,09,29,03,27,10.90
2020,09,29,03,28,10.90
2020,09,29,03,29,10.90
2020,09,29,03,30,10.90
2020,09,29,03,31,10.90
2020,09,29,03,32,10.90
2020,09,29,03,33,11.00
2020,09,29,03,34,11.00
2020,09,29,03,35,11.00
2020,09,29,03,36,11.00
2020,09,29,03,37,11.00
2020,09,29,03,38,11.00
2020,09,29,03,39,11.00
2020,09,29,03,40,11.00
2020,09,29,03,41,11.00
2020,09,29,03,42,11.00
2020,09,29,03,43,11.00
2020,09,29,03,44,11.00
2020,09,29,03,45,11.00
2020,09,29,03,46,11.00
2020,09,29,03,47,11.00
2020,09,29,03,48,11.00
2020,09,29,03,49,11.00
2020,09,29,03,50,11.00
2020,09,29,03,51,10.90
2020,09,29,03,52,10.90
2020,09,29,03,53,10.90
2020,09,29,03,54,10.90
2020,09,29,03,55,10.90
2020,09,29,03,56,10.90
2020,09,29,03,57,10.90
2020,09,29,03,58,10.80
2020,09,29,03,59,10.80
2020,09,29,04,00,10.80
2020,09,29,04,01,10.80
2020,09,29,04,02,10.80
2020,09,29,04,03,10.70
2020,09,29,04,04,10.70
2020,09,29,04,05,10.70
2020,09,29,04,06,10.70
2020,09,29,04,07,10.70
2020,09,29,04,08,10.70
2020,09,29,04,09,10.70
2020,09,29,04,10,10.60
2020,09,29,04,11,10.60
2020,09,29,04,12,10.60
2020,09,29,04,13,10.60
2020,09,29,04,14,10.60
2020,09,29,04,15,10.60
2020,09,29,04,16,10.50
2020,09,29,04,17,10.50
2020,09,29,04,18,10.50
2020,09,29,04,19,10.50
2020,09,29,04,20,10.50
2020,09,29,04,21,10.50
2020,09,29,04,22,10.50
2020,09,29,04,23,10.50
2020,09,29,04,24,10.50
2020,09,29,04,25,10.50
2020,09,29,04,26,10.50
2020,09,29,04,27,10.50
2020,09,29,04,28,10.50
2020,09,29,04,29,10.50
2020,09,29,04,30,10.50
2020,09,29,04,31,10.50
2020,09,29,04,32,10.50
2020,09,29,04,33,10.50
2020,09,29,04,34,10.60
2020,09,29,04,35,10.60
2020,09,29,04,36,10.60
2020,09,29,04,37,10.60
2020,09,29,04,38,10.60
2020,09,29,04,39,10.60
2020,09,29,04,40,10.60
2020,09,29,04,41,10.50
2020,09,29,04,42,10.50
2020,09,29,04,43,10.50
2020,09,29,04,44,10.60
2020,09,29,04,45,10.60
2020,09,29,04,46,10.60
2020,09,29,04,47,10.60
2020,09,29,04,48,10.60
2020,09,29,04,49,10.60
2020,09,29,04,50,10.60
2020,09,29,04,51,10.60
2020,09,29,04,52,10.60
2020,09,29,04,53,10.50
2020,09,29,04,54,10.50
2020,09,29,04,55,10.50
2020,09,29,04,56,10.60
2020,09,29,04,57,10.60
2020,09,29,04,58,10.70
2020,09,29,04,59,10.70
2020,09,29,05,00,10.70
2020,09,29,05,01,10.80
2020,09,29,05,02,10.80
2020,09,29,05,03,10.80
2020,09,29,05,04,10.80
2020,09,29,05,05,10.80
2020,09,29,05,06,10.80
2020,09,29,05,07,10.70
2020,09,29,05,08,10.70
2020,09,29,05,09,10.70
2020,09,29,05,10,10.70
2020,09,29,05,11,10.70
2020,09,29,05,12,10.70
2020,09,29,05,13,10.70
2020,09,29,05,14,10.70
2020,09,29,05,15,10.70
2020,09,29,05,16,10.70
2020,09,29,05,17,10.70
2020,09,29,05,18,10.70
2020,09,29,05,19,10.80
2020,09,29,05,20,10.70
2020,09,29,05,21,10.80
2020,09,29,05,22,10.80
2020,09,29,05,23,10.80
2020,09,29,05,24,10.80
2020,09,29,05,25,10.80
2020,09,29,05,26,10.80
2020,09,29,05,27,10.80
2020,09,29,05,28,10.80
2020,09,29,05,29,10.80
2020,09,29,05,30,10.80
2020,09,29,05,31,10.80
2020,09,29,05,32,10.80
2020,09,29,05,33,10.80
2020,09,29,05,34,10.80
2020,09,29,05,35,10.80
2020,09,29,05,36,10.80
2020,09,29,05,37,10.80
2020,09,29,05,38,10.80
2020,09,29,05,39,10.80
2020,09,29,05,40,10.80
2020,09,29,05,41,10.80
2020,09,29,05,42,10.80
2020,09,29,05,43,10.70
2020,09,29,05,44,10.70
2020,09,29,05,45,10.70
2020,09,29,05,46,10.70
2020,09,29,05,47,10.60
2020,09,29,05,48,10.60
2020,09,29,05,49,10.60
2020,09,29,05,50,10.60
2020,09,29,05,51,10.60
2020,09,29,05,52,10.50
2020,09,29,05,53,10.50
2020,09,29,05,54,10.50
2020,09,29,05,55,10.50
2020,09,29,05,56,10.50
2020,09,29,05,57,10.50
2020,09,29,05,58,10.50
2020,09,29,05,59,10.50
2020,09,29,06,00,10.40
2020,09,29,06,01,10.40
2020,09,29,06,02,10.40
2020,09,29,06,03,10.40
2020,09,29,06,04,10.40
2020,09,29,06,05,10.40
2020,09,29,06,06,10.40
2020,09,29,06,07,10.40
2020,09,29,06,08,10.40
2020,09,29,06,09,10.40
2020,09,29,06,10,10.40
2020,09,29,06,11,10.30
2020,09,29,06,12,10.30
2020,09,29,06,13,10.30
2020,09,29,06,14,10.30
2020,09,29,06,15,10.30
2020,09,29,06,16,10.20
2020,09,29,06,17,10.20
2020,09,29,06,18,10.20
2020,09,29,06,19,10.20
2020,09,29,06,20,10.20
2020,09,29,06,21,10.20
2020,09,29,06,22,10.20
2020,09,29,06,23,10.10
2020,09,29,06,24,10.20
2020,09,29,06,25,10.20
2020,09,29,06,26,10.10
2020,09,29,06,27,10.10
2020,09,29,06,28,10.10
2020,09,29,06,29,10.10
2020,09,29,06,30,10.10
2020,09,29,06,31,10.10
2020,09,29,06,32,10.10
2020,09,29,06,33,10.10
2020,09,29,06,34,10.10
2020,09,29,06,35,10.10
2020,09,29,06,36,10.10
2020,09,29,06,37,10.10
2020,09,29,06,38,10.10
2020,09,29,06,39,10.10
2020,09,29,06,40,10.10
2020,09,29,06,41,10.10
2020,09,29,06,42,10.10
2020,09,29,06,43,10.10
2020,09,29,06,44,10.10
2020,09,29,06,45,10.10
2020,09,29,06,46,10.10
2020,09,29,06,47,10.20
2020,09,29,06,48,10.20
2020,09,29,06,49,10.20
2020,09,29,06,50,10.20
2020,09,29,06,51,10.10
2020,09,29,06,52,10.10
2020,09,29,06,53,10.10
2020,09,29,06,54,10.10
2020,09,29,06,55,10.10
2020,09,29,06,56,10.10
2020,09,29,06,57,10.10
2020,09,29,06,58,10.20
2020,09,29,06,59,10.20
2020,09,29,07,00,10.30
2020,09,29,07,01,10.30
2020,09,29,07,02,10.30
2020,09,29,07,03,10.30
2020,09,29,07,04,10.20
2020,09,29,07,05,10.30
2020,09,29,07,06,10.20
2020,09,29,07,07,10.20
2020,09,29,07,08,10.20
2020,09,29,07,09,10.20
2020,09,29,07,10,10.20
2020,09,29,07,11,10.20
2020,09,29,07,12,10.20
2020,09,29,07,13,10.20
2020,09,29,07,14,10.20
2020,09,29,07,15,10.10
2020,09,29,07,16,10.10
2020,09,29,07,17,10.10
2020,09,29,07,18,10.10
2020,09,29,07,19,10.10
2020,09,29,07,20,10.10
2020,09,29,07,21,10.00
2020,09,29,07,22,10.00
2020,09,29,07,23,10.00
2020,09,29,07,24,9.90
2020,09,29,07,25,9.90
2020,09,29,07,26,10.00
2020,09,29,07,27,9.90
2020,09,29,07,28,10.00
2020,09,29,07,29,10.00
2020,09,29,07,30,10.00
2020,09,29,07,31,9.90
2020,09,29,07,32,10.00
2020,09,29,07,33,10.00
2020,09,29,07,34,10.00
2020,09,29,07,35,10.00
2020,09,29,07,36,10.10
2020,09,29,07,37,10.10
2020,09,29,07,38,10.10
2020,09,29,07,39,10.00
2020,09,29,07,40,10.00
2020,09,29,07,41,10.10
2020,09,29,07,42,10.10
2020,09,29,07,43,10.10
2020,09,29,07,44,10.10
2020,09,29,07,45,10.20
2020,09,29,07,46,10.10
2020,09,29,07,47,10.10
2020,09,29,07,48,10.10
2020,09,29,07,49,10.10
2020,09,29,07,50,10.10
2020,09,29,07,51,10.20
2020,09,29,07,52,10.20
2020,09,29,07,53,10.20
2020,09,29,07,54,10.30
2020,09,29,07,55,10.30
2020,09,29,07,56,10.30
2020,09,29,07,57,10.30
2020,09,29,07,58,10.40
2020,09,29,07,59,10.40
2020,09,29,08,00,10.40
2020,09,29,08,01,10.40
2020,09,29,08,02,10.40
2020,09,29,08,03,10.40
2020,09,29,08,04,10.40
2020,09,29,08,05,10.50
2020,09,29,08,06,10.50
2020,09,29,08,07,10.50
2020,09,29,08,08,10.50
2020,09,29,08,09,10.50
2020,09,29,08,10,10.60
2020,09,29,08,11,10.60
2020,09,29,08,12,10.60
2020,09,29,08,13,10.60
2020,09,29,08,14,10.60
2020,09,29,08,15,10.70
2020,09,29,08,16,10.60
2020,09,29,08,17,10.70
2020,09,29,08,18,10.70
2020,09,29,08,19,10.70
2020,09,29,08,20,10.60
2020,09,29,08,21,10.70
2020,09,29,08,22,10.70
2020,09,29,08,23,10.70
2020,09,29,08,24,10.70
2020,09,29,08,25,10.70
2020,09,29,08,26,10.70
2020,09,29,08,27,10.70
2020,09,29,08,28,10.80
2020,09,29,08,29,10.80
2020,09,29,08,30,10.80
2020,09,29,08,31,10.90
2020,09,29,08,32,10.90
2020,09,29,08,33,11.00
2020,09,29,08,34,11.00
2020,09,29,08,35,11.00
2020,09,29,08,36,11.10
2020,09,29,08,37,11.10
2020,09,29,08,38,11.20
2020,09,29,08,39,11.20
2020,09,29,08,40,11.30
2020,09,29,08,41,11.30
2020,09,29,08,42,11.30
2020,09,29,08,43,11.30
2020,09,29,08,44,11.30
2020,09,29,08,45,11.40
2020,09,29,08,46,11.40
2020,09,29,08,47,11.50
2020,09,29,08,48,11.50
2020,09,29,08,49,11.60
2020,09,29,08,50,11.60
2020,09,29,08,51,11.60
2020,09,29,08,52,11.60
2020,09,29,08,53,11.70
2020,09,29,08,54,11.70
2020,09,29,08,55,11.70
2020,09,29,08,56,11.80
2020,09,29,08,57,11.80
2020,09,29,08,58,11.80
2020,09,29,08,59,11.90
2020,09,29,09,00,11.90
2020,09,29,09,01,11.90
2020,09,29,09,02,11.90
2020,09,29,09,03,11.90
2020,09,29,09,04,11.90
2020,09,29,09,05,12.00
2020,09,29,09,06,12.00
2020,09,29,09,07,12.10
2020,09,29,09,08,12.10
2020,09,29,09,09,12.20
2020,09,29,09,10,12.20
2020,09,29,09,11,12.20
2020,09,29,09,12,12.20
2020,09,29,09,13,12.20
2020,09,29,09,14,12.30
2020,09,29,09,15,12.30
2020,09,29,09,16,12.30
2020,09,29,09,17,12.40
2020,09,29,09,18,12.40
2020,09,29,09,19,12.40
2020,09,29,09,20,12.50
2020,09,29,09,21,12.50
2020,09,29,09,22,12.60
2020,09,29,09,23,12.70
2020,09,29,09,24,12.70
2020,09,29,09,25,12.70
2020,09,29,09,26,12.80
2020,09,29,09,27,12.80
2020,09,29,09,28,12.80
2020,09,29,09,29,12.90
2020,09,29,09,30,12.90
2020,09,29,09,31,12.90
2020,09,29,09,32,12.90
2020,09,29,09,33,13.00
2020,09,29,09,34,13.00
2020,09,29,09,35,13.00
2020,09,29,09,36,13.10
2020,09,29,09,37,13.10
2020,09,29,09,38,13.10
2020,09,29,09,39,13.20
2020,09,29,09,40,13.20
2020,09,29,09,41,13.20
2020,09,29,09,42,13.30
2020,09,29,09,43,13.30
2020,09,29,09,44,13.30
2020,09,29,09,45,13.40
2020,09,29,09,46,13.40
2020,09,29,09,47,13.40
2020,09,29,09,48,13.50
2020,09,29,09,49,13.60
2020,09,29,09,50,13.70
2020,09,29,09,51,13.80
2020,09,29,09,52,13.90
2020,09,29,09,53,14.00
2020,09,29,09,54,14.10
2020,09,29,09,55,14.20
2020,09,29,09,56,14.30
2020,09,29,09,57,14.40
2020,09,29,09,58,14.50
2020,09,29,09,59,14.60
2020,09,29,10,00,14.80
2020,09,29,10,01,14.90
2020,09,29,10,02,15.00
2020,09,29,10,03,15.20
2020,09,29,10,04,15.20
2020,09,29,10,05,15.30
2020,09,29,10,06,15.40
2020,09,29,10,07,15.60
2020,09,29,10,08,15.70
2020,09,29,10,09,15.70
2020,09,29,10,10,15.80
2020,09,29,10,11,15.90
2020,09,29,10,12,16.10
2020,09,29,10,13,16.30
2020,09,29,10,14,16.30
2020,09,29,10,15,16.40
2020,09,29,10,16,16.50
2020,09,29,10,17,16.50
2020,09,29,10,18,16.60
2020,09,29,10,19,16.60
2020,09,29,10,20,16.60
2020,09,29,10,21,16.60
2020,09,29,10,22,16.70
2020,09,29,10,23,16.90
2020,09,29,10,24,16.90
2020,09,29,10,25,16.90
2020,09,29,10,26,16.90
2020,09,29,10,27,16.90
2020,09,29,10,28,16.90
2020,09,29,10,29,17.00
2020,09,29,10,30,17.10
2020,09,29,10,31,17.20
2020,09,29,10,32,17.20
2020,09,29,10,33,17.30
2020,09,29,10,34,17.30
2020,09,29,10,35,17.40
2020,09,29,10,36,17.50
2020,09,29,10,37,17.50
2020,09,29,10,38,17.60
2020,09,29,10,39,17.60
2020,09,29,10,40,17.60
2020,09,29,10,41,17.70
2020,09,29,10,42,17.80
2020,09,29,10,43,17.90
2020,09,29,10,44,18.10
2020,09,29,10,45,18.20
2020,09,29,10,46,18.30
2020,09,29,10,47,18.40
2020,09,29,10,48,18.40
2020,09,29,10,49,18.40
2020,09,29,10,50,18.40
2020,09,29,10,51,18.40
2020,09,29,10,52,18.50
2020,09,29,10,53,18.50
2020,09,29,10,54,18.60
2020,09,29,10,55,18.70
2020,09,29,10,56,18.70
2020,09,29,10,57,18.70
2020,09,29,10,58,18.80
2020,09,29,10,59,18.90
2020,09,29,11,00,18.90
2020,09,29,11,01,18.90
2020,09,29,11,02,19.10
2020,09,29,11,03,19.20
2020,09,29,11,04,19.30
2020,09,29,11,05,19.40
2020,09,29,11,06,19.60
2020,09,29,11,07,19.70
2020,09,29,11,08,19.80
2020,09,29,11,09,19.90
2020,09,29,11,10,20.10
2020,09,29,11,11,20.20
2020,09,29,11,12,20.30
2020,09,29,11,13,20.40
2020,09,29,11,14,20.50
2020,09,29,11,15,20.50
2020,09,29,11,16,20.60
2020,09,29,11,17,20.70
2020,09,29,11,18,20.80
2020,09,29,11,19,20.80
2020,09,29,11,20,20.90
2020,09,29,11,21,21.00
2020,09,29,11,22,21.10
2020,09,29,11,23,21.30
2020,09,29,11,24,21.40
2020,09,29,11,25,21.40
2020,09,29,11,26,21.40
2020,09,29,11,27,21.40
2020,09,29,11,28,21.40
2020,09,29,11,29,21.40
2020,09,29,11,30,21.40
2020,09,29,11,31,21.30
2020,09,29,11,32,21.30
2020,09,29,11,33,21.30
2020,09,29,11,34,21.30
2020,09,29,11,35,21.30
2020,09,29,11,36,21.30
2020,09,29,11,37,21.30
2020,09,29,11,38,21.40
2020,09,29,11,39,21.40
2020,09,29,11,40,21.50
2020,09,29,11,41,21.60
2020,09,29,11,42,21.60
2020,09,29,11,43,21.70
2020,09,29,11,44,21.80
2020,09,29,11,45,21.80
2020,09,29,11,46,21.90
2020,09,29,11,47,21.90
2020,09,29,11,48,21.90
2020,09,29,11,49,22.00
2020,09,29,11,50,22.10
2020,09,29,11,51,22.20
2020,09,29,11,52,22.20
2020,09,29,11,53,22.30
2020,09,29,11,54,22.30
2020,09,29,11,55,22.20
2020,09,29,11,56,22.20
2020,09,29,11,57,22.20
2020,09,29,11,58,22.10
2020,09,29,11,59,22.20
2020,09,29,12,00,22.20
2020,09,29,12,01,22.20
2020,09,29,12,02,22.30
2020,09,29,12,03,22.30
2020,09,29,12,04,22.40
2020,09,29,12,05,22.40
2020,09,29,12,06,22.40
2020,09,29,12,07,22.40
2020,09,29,12,08,22.50
2020,09,29,12,09,22.60
2020,09,29,12,10,22.60
2020,09,29,12,11,22.60
2020,09,29,12,12,22.70
2020,09,29,12,13,22.80
2020,09,29,12,14,22.70
2020,09,29,12,15,22.60
2020,09,29,12,16,22.50
2020,09,29,12,17,22.50
2020,09,29,12,18,22.40
2020,09,29,12,19,22.50
2020,09,29,12,20,22.60
2020,09,29,12,21,22.60
2020,09,29,12,22,22.60
2020,09,29,12,23,22.70
2020,09,29,12,24,22.70
2020,09,29,12,25,22.60
2020,09,29,12,26,22.60
2020,09,29,12,27,22.60
2020,09,29,12,28,22.60
2020,09,29,12,29,22.60
2020,09,29,12,30,22.60
2020,09,29,12,31,22.70
2020,09,29,12,32,22.80
2020,09,29,12,33,22.90
2020,09,29,12,34,22.90
2020,09,29,12,35,23.10
2020,09,29,12,36,23.20
2020,09,29,12,37,23.20
2020,09,29,12,38,23.20
2020,09,29,12,39,23.20
2020,09,29,12,40,23.30
2020,09,29,12,41,23.30
2020,09,29,12,42,23.30
2020,09,29,12,43,23.30
2020,09,29,12,44,23.30
2020,09,29,12,45,23.30
2020,09,29,12,46,23.30
2020,09,29,12,47,23.30
2020,09,29,12,48,23.40
2020,09,29,12,49,23.40
2020,09,29,12,50,23.50
2020,09,29,12,51,23.50
2020,09,29,12,52,23.60
2020,09,29,12,53,23.60
2020,09,29,12,54,23.60
2020,09,29,12,55,23.60
2020,09,29,12,56,23.60
2020,09,29,12,57,23.60
2020,09,29,12,58,23.60
2020,09,29,12,59,23.60
2020,09,29,13,00,23.70
2020,09,29,13,01,23.70
2020,09,29,13,02,23.80
2020,09,29,13,03,23.80
2020,09,29,13,04,23.80
2020,09,29,13,05,23.80
2020,09,29,13,06,23.80
2020,09,29,13,07,23.80
2020,09,29,13,08,23.80
2020,09,29,13,09,23.80
2020,09,29,13,10,23.80
2020,09,29,13,11,23.90
2020,09,29,13,12,24.00
2020,09,29,13,13,24.10
2020,09,29,13,14,24.10
2020,09,29,13,15,24.10
2020,09,29,13,16,24.20
2020,09,29,13,17,24.30
2020,09,29,13,18,24.30
2020,09,29,13,19,24.40
2020,09,29,13,20,24.40
2020,09,29,13,21,24.40
2020,09,29,13,22,24.40
2020,09,29,13,23,24.40
2020,09,29,13,24,24.40
2020,09,29,13,25,24.40
2020,09,29,13,26,24.40
2020,09,29,13,27,24.40
2020,09,29,13,28,24.40
2020,09,29,13,29,24.20
2020,09,29,13,30,24.20
2020,09,29,13,31,24.10
2020,09,29,13,32,24.10
2020,09,29,13,33,24.10
2020,09,29,13,34,24.10
2020,09,29,13,35,24.10
2020,09,29,13,36,24.10
2020,09,29,13,37,24.10
2020,09,29,13,38,24.20
2020,09,29,13,39,24.30
2020,09,29,13,40,24.40
2020,09,29,13,41,24.50
2020,09,29,13,42,24.50
2020,09,29,13,43,24.50
2020,09,29,13,44,24.60
2020,09,29,13,45,24.60
2020,09,29,13,46,24.60
2020,09,29,13,47,24.60
2020,09,29,13,48,24.60
2020,09,29,13,49,24.50
2020,09,29,13,50,24.50
2020,09,29,13,51,24.40
2020,09,29,13,52,24.40
2020,09,29,13,53,24.40
2020,09,29,13,54,24.40
2020,09,29,13,55,24.50
2020,09,29,13,56,24.60
2020,09,29,13,57,24.60
2020,09,29,13,58,24.70
2020,09,29,13,59,24.80
2020,09,29,14,00,24.80
2020,09,29,14,01,24.80
2020,09,29,14,02,24.80
2020,09,29,14,03,24.80
2020,09,29,14,04,24.80
2020,09,29,14,05,24.90
2020,09,29,14,06,24.90
2020,09,29,14,07,25.10
2020,09,29,14,08,25.20
2020,09,29,14,09,25.30
2020,09,29,14,10,25.30
2020,09,29,14,11,25.30
2020,09,29,14,12,25.30
2020,09,29,14,13,25.30
2020,09,29,14,14,25.30
2020,09,29,14,15,25.40
2020,09,29,14,16,25.50
2020,09,29,14,17,25.50
2020,09,29,14,18,25.60
2020,09,29,14,19,25.70
2020,09,29,14,20,25.70
2020,09,29,14,21,25.60
2020,09,29,14,22,25.60
2020,09,29,14,23,25.60
2020,09,29,14,24,25.60
2020,09,29,14,25,25.50
2020,09,29,14,26,25.50
2020,09,29,14,27,25.50
2020,09,29,14,28,25.60
2020,09,29,14,29,25.70
2020,09,29,14,30,25.70
2020,09,29,14,31,25.70
2020,09,29,14,32,25.70
2020,09,29,14,33,25.60
2020,09,29,14,34,25.60
2020,09,29,14,35,25.60
2020,09,29,14,36,25.60
2020,09,29,14,37,25.60
2020,09,29,14,38,25.70
2020,09,29,14,39,25.80
2020,09,29,14,40,25.80
2020,09,29,14,41,25.80
2020,09,29,14,42,25.80
2020,09,29,14,43,25.90
2020,09,29,14,44,25.90
2020,09,29,14,45,26.00
2020,09,29,14,46,26.00
2020,09,29,14,47,25.90
2020,09,29,14,48,26.00
2020,09,29,14,49,26.00
2020,09,29,14,50,26.10
2020,09,29,14,51,26.10
2020,09,29,14,52,26.10
2020,09,29,14,53,26.10
2020,09,29,14,54,26.10
2020,09,29,14,55,26.20
2020,09,29,14,56,26.30
2020,09,29,14,57,26.40
2020,09,29,14,58,26.40
2020,09,29,14,59,26.50
2020,09,29,15,00,26.50
2020,09,29,15,01,26.50
2020,09,29,15,02,26.40
2020,09,29,15,03,26.40
2020,09,29,15,04,26.30
2020,09,29,15,05,26.30
2020,09,29,15,06,26.30
2020,09,29,15,07,26.30
2020,09,29,15,08,26.30
2020,09,29,15,09,26.40
2020,09,29,15,10,26.40
2020,09,29,15,11,26.40
2020,09,29,15,12,26.40
2020,09,29,15,13,26.40
2020,09,29,15,14,26.50
2020,09,29,15,15,26.50
2020,09,29,15,16,26.50
2020,09,29,15,17,26.50
2020,09,29,15,18,26.50
2020,09,29,15,19,26.40
2020,09,29,15,20,26.50
2020,09,29,15,21,26.50
2020,09,29,15,22,26.50
2020,09,29,15,23,26.40
2020,09,29,15,24,26.40
2020,09,29,15,25,26.40
2020,09,29,15,26,26.30
2020,09,29,15,27,26.30
2020,09,29,15,28,26.30
2020,09,29,15,29,26.30
2020,09,29,15,30,26.40
2020,09,29,15,31,26.40
2020,09,29,15,32,26.40
2020,09,29,15,33,26.60
2020,09,29,15,34,26.70
2020,09,29,15,35,26.70
2020,09,29,15,36,26.70
2020,09,29,15,37,26.70
2020,09,29,15,38,26.70
2020,09,29,15,39,26.80
2020,09,29,15,40,26.90
2020,09,29,15,41,26.90
2020,09,29,15,42,26.90
2020,09,29,15,43,27.00
2020,09,29,15,44,27.00
2020,09,29,15,45,27.00
2020,09,29,15,46,27.10
2020,09,29,15,47,27.00
2020,09,29,15,48,26.90
2020,09,29,15,49,26.90
2020,09,29,15,50,26.90
2020,09,29,15,51,26.90
2020,09,29,15,52,27.00
2020,09,29,15,53,27.00
2020,09,29,15,54,27.00
2020,09,29,15,55,27.00
2020,09,29,15,56,27.00
2020,09,29,15,57,26.90
2020,09,29,15,58,26.90
2020,09,29,15,59,26.90
2020,09,29,16,00,26.90
2020,09,29,16,01,26.90
2020,09,29,16,02,26.90
2020,09,29,16,03,26.80
2020,09,29,16,04,26.80
2020,09,29,16,05,26.70
2020,09,29,16,06,26.50
2020,09,29,16,07,26.40
2020,09,29,16,08,26.40
2020,09,29,16,09,26.50
2020,09,29,16,10,26.50
2020,09,29,16,11,26.50
2020,09,29,16,12,26.50
2020,09,29,16,13,26.50
2020,09,29,16,14,26.50
2020,09,29,16,15,26.50
2020,09,29,16,16,26.40
2020,09,29,16,17,26.40
2020,09,29,16,18,26.50
2020,09,29,16,19,26.50
2020,09,29,16,20,26.50
2020,09,29,16,21,26.50
2020,09,29,16,22,26.60
2020,09,29,16,23,26.60
2020,09,29,16,24,26.60
2020,09,29,16,25,26.50
2020,09,29,16,26,26.40
2020,09,29,16,27,26.40
2020,09,29,16,28,26.40
2020,09,29,16,29,26.40
2020,09,29,16,30,26.40
2020,09,29,16,31,26.30
2020,09,29,16,32,26.30
2020,09,29,16,33,26.10
2020,09,29,16,34,26.00
2020,09,29,16,35,25.90
2020,09,29,16,36,25.80
2020,09,29,16,37,25.70
2020,09,29,16,38,25.60
2020,09,29,16,39,25.60
2020,09,29,16,40,25.50
2020,09,29,16,41,25.50
2020,09,29,16,42,25.50
2020,09,29,16,43,25.50
2020,09,29,16,44,25.40
2020,09,29,16,45,25.40
2020,09,29,16,46,25.40
2020,09,29,16,47,25.40
2020,09,29,16,48,25.30
2020,09,29,16,49,25.30
2020,09,29,16,50,25.30
2020,09,29,16,51,25.30
2020,09,29,16,52,25.30
2020,09,29,16,53,25.30
2020,09,29,16,54,25.30
2020,09,29,16,55,25.30
2020,09,29,16,56,25.30
2020,09,29,16,57,25.20
2020,09,29,16,58,25.30
2020,09,29,16,59,25.30
2020,09,29,17,00,25.30
2020,09,29,17,01,25.30
2020,09,29,17,02,25.30
2020,09,29,17,03,25.30
2020,09,29,17,04,25.30
2020,09,29,17,05,25.20
2020,09,29,17,06,25.20
2020,09,29,17,07,25.10
2020,09,29,17,08,25.10
2020,09,29,17,09,25.10
2020,09,29,17,10,25.00
2020,09,29,17,11,24.90
2020,09,29,17,12,24.90
2020,09,29,17,13,24.90
2020,09,29,17,14,24.80
2020,09,29,17,15,24.80
2020,09,29,17,16,24.80
2020,09,29,17,17,24.80
2020,09,29,17,18,24.70
2020,09,29,17,19,24.70